Location: Newark
(49.6569°N, 1.5194°E)
Time: 08:49:54
(UTC+00:00)

N. Korean satellite - Visible Passes

Search period start: 20 October 2019 00:00
Search period end: 30 October 2019 00:00
Orbit: 455 x 508 km, 97.2° (Epoch: 19 October)

Date Brightness Start Highest point End Pass type
(mag) Time Alt. Az. Time Alt. Az. Time Alt. Az.
20 Oct 10.1 04:49:17 10° NE 04:51:17 14° E 04:53:18 10° ESE visible
21 Oct 10.3 18:11:33 10° WSW 18:12:52 12° W 18:14:11 10° WNW visible
22 Oct 8.2 05:30:55 10° NNE 05:34:21 40° E 05:37:50 10° S visible
22 Oct 9.5 17:44:35 10° SSW 17:47:19 22° W 17:50:05 10° NW visible
23 Oct 9.5 05:06:03 10° NE 05:08:55 22° E 05:11:48 10° SE visible
23 Oct 8.0 17:18:35 10° S 17:21:52 42° W 17:25:13 10° NNW visible
24 Oct 10.3 04:41:56 10° ENE 04:43:23 12° E 04:44:51 10° ESE visible
25 Oct 7.1 05:48:14 10° NNE 05:51:53 65° ESE 05:55:32 10° S visible
25 Oct 10.0 18:02:57 10° SW 18:04:55 14° W 18:06:54 10° NW visible
26 Oct 8.6 05:23:08 10° NNE 05:26:30 33° E 05:29:51 10° SSE visible
26 Oct 9.1 17:36:25 10° SSW 17:39:23 26° W 17:42:25 10° NW visible
27 Oct 9.8 04:58:23 10° NE 05:01:00 18° E 05:03:38 10° SE visible
27 Oct 7.5 17:10:34 10° S 17:13:57 53° W 17:17:25 10° NNW visible
29 Oct 7.6 05:40:22 10° NNE 05:43:59 53° E 05:47:37 10° S visible
29 Oct 9.8 17:54:31 10° SW 17:56:55 17° W 17:59:22 10° NW visible
